Tracking 31023 objects as of 19-Jul-2025
HD Live streaming from Space Station
objects crossing your sky now

STARLINK-30824

Track STARLINK-30824 now!
10-day predictions
STARLINK-30824 is classified as:


NORAD ID: 58176
Int'l Code: 2023-167B
Perigee: 565.3 km
Apogee: 566.9 km
Inclination: 43.0 °
Period: 95.8 minutes
Semi major axis: 6937 km
RCS: Unknown
Launch date: October 30, 2023
Source: United States (US)
Launch site: AIR FORCE EASTERN TEST RANGE (AFETR)
Your satellite tracking list
Your tracking list is empty




NASA's NSSDC Master Catalog

Two Line Element Set (TLE):
1 58176U 23167B   25200.38413275 -.00010753  00000-0 -78129-3 0  9996
2 58176  43.0048 333.3517 0001141 247.9763 112.0959 15.02578499 95818
Source of the keplerian elements: AFSPC